Regional Weather Roundup
Issued by NWS Sioux Falls, SD

Home | Current Version | Previous Version | Text Only | Print | Product List | Glossary Off
Versions: 1 2 3 4 5 6 7 8 9 10 11 12 13 14 15 16 17 18 19 20 21 22 23 24 25 26 27 28 29 30 31 32 33 34 35 36 37 38 39 40 41 42 43 44 45 46 47 48 49 50

687
ASUS43 KFSD 280310
RWRFSD

WEATHER ROUNDUP FOR SE SOUTH DAKOTA/SW MINNESOTA/NW IOWA
NATIONAL WEATHER SERVICE SIOUX FALLS SD
1000 PM CDT SAT MAY 27 2017

NOTE: "FAIR" INDICATES FEW OR NO CLOUDS BELOW 12,000 FEET WITH NO
SIGNIFICANT WEATHER AND OR OBSTRUCTIONS TO VISIBILITY.


SDZ038>040-050-052>070-280400-
SOUTHEAST SOUTH DAKOTA

CITY           SKY/WX    TMP DP  RH WIND       PRES   REMARKS
BROOKINGS      CLEAR     57  48  72 SW8       29.88S
CHAMBERLAIN    PTCLDY    64  50  60 SW6       29.91R
HURON          CLOUDY    62  49  62 S8        29.85S
MADISON        FAIR      57  48  72 SW6       29.91S
MITCHELL       CLEAR     63  49  60 S9        29.89F
SIOUX FALLS    PTCLDY    60  54  80 SW5       29.91S
WINNER         FAIR      60  49  66 SW6       29.93S
YANKTON        PTCLDY    57  52  83 SW7       29.93F
$$

MNZ071-072-080-081-089-090-097-098-280400-
SOUTHWEST MINNESOTA

CITY           SKY/WX    TMP DP  RH WIND       PRES   REMARKS
FAIRMONT       CLOUDY    64  48  56 W6        29.89R
JACKSON        CLOUDY    61  50  67 W6        29.91R
LUVERNE        CLEAR     54  46  76 SW6       29.91S
MARSHALL       PTCLDY    62  48  60 SW9       29.86F
MONTEVIDEO     CLOUDY    64  45  48 SW8       29.84S
PIPESTONE      CLEAR     57  45  62 W6        29.90F
REDWOOD FALLS  CLOUDY    66  45  46 SW8       29.85S
TRACY          PTCLDY    62  50  65 SW7       29.88F
WINDOM         PTCLDY    63  50  63 SW8       29.90R
WORTHINGTON    CLOUDY    61  50  67 SW7       29.91S
$$

IAZ001>003-012>014-020>022-031-032-NEZ013-014-SDZ071-280400-
NORTHWEST IOWA

CITY           SKY/WX    TMP DP  RH WIND       PRES   REMARKS
CHEROKEE       LGT RAIN  61  55  80 NW7       29.92R
DENISON        CLOUDY    59  52  77 CALM      29.92R
ESTHERVILLE    CLOUDY    62  52  69 W6        29.89R
LE MARS        CLOUDY    61  55  82 NW3       29.93F
ORANGE CITY    CLOUDY    59  55  88 W5        29.92F
SHELDON        CLOUDY    59  55  88 W7        29.90S
SIOUX CITY     LGT RAIN  62  54  74 NW7       29.92S
SPENCER        LGT RAIN  60  55  83 W6        29.91R
STORM LAKE     CLOUDY    63  50  63 NW12      29.92R
$$

ABBREVIATIONS USED IN REMARKS
   TC - TEMPERATURE IN CELSIUS
  WCI - WIND CHILL INDEX
   HX - HEAT INDEX
  VSB - VISIBILITY





USA.gov is the U.S. government's official web portal to all federal, state and local government web resources and services.